PEGASUS (42784 NORAD) Tracking and Keplerian Element Data

This shows tracking and keplerian element data for the satellite.

Feedback or suggestion? Click here.




ElementValue
Catalog42784
NamePEGASUS
Epoch Orbit6948
Epoch Day266.61615327
Epoch Year2018
RAAN324.7385
Inclination97.3915
Eccentricity0.001401
Argument of Perigee91.9123
Mean Anonmoly268.3718
Mean Motion15.21878654
Decay Rate1.385E-05
L11 42784U 17036V 18266.61615327 .00001385 00000-0 63783-4 0 9994
L22 42784 97.3915 324.7385 0014010 91.9123 268.3718 15.21878654 69483

Live tracking and technical data element details for PEGASUS (NORAD 42784). PEGASUS can be tracked NOW for your location showing map with azimuth and elevation plus other details from your city location.

Track the satellite on the map from your city or location and see movement details for azimuth, elevation, latitude, longitude, range, height, and movement on the map or in text.







IsCatalogInMostPopularTable: catalog: 42784, numindb: 110
Update: records affected: 1



GetName: 42784 PEGASUS

Hit Count: updated at: Tue, 25 Sep 2018 15:23:42 GMT